When you browse on this site, cookies collect data to enhance your experience and personalize the content and advertising you see.
Visit our Privacy Policy to learn more. By continuing to use the site, you agree to this use of cookies and data.
  • In Hungary
  • List of Countries
  • For 7 days
  • Water Temperature
  • Weather Map
  • News
  • Weather Widgets
  • user-avatar
    Login

    Hourly Weather Lemgo

    Today, 14 November, Thursday

    Time Temperature Precipitation Wind Pressure Humidity
    00:00 +3°C° 0 mm 2 mps 742 mmHg 91%
    01:00 +3°C° 0 mm 2 mps 743 mmHg 94%
    02:00 +3°C° 0 mm 2 mps 742 mmHg 94%
    03:00 +2°C° 0 mm 2 mps 742 mmHg 93%
    04:00 +2°C° 0 mm 2 mps 742 mmHg 93%
    05:00 +2°C° 0 mm 2 mps 742 mmHg 93%
    06:00 +1°C° 0 mm 3 mps 743 mmHg 93%
    07:00 +1°C° 0 mm 3 mps 743 mmHg 93%
    08:00 +2°C° 0 mm 3 mps 743 mmHg 88%
    09:00 +3°C° 0 mm 3 mps 744 mmHg 83%
    10:00 +4°C° 0 mm 3 mps 744 mmHg 77%
    11:00 +5°C° 0 mm 4 mps 744 mmHg 74%
    12:00 +6°C° 0 mm 4 mps 744 mmHg 71%
    13:00 +7°C° 0 mm 4 mps 744 mmHg 68%
    14:00 +6°C° 0 mm 4 mps 744 mmHg 71%
    15:00 +7°C° 0 mm 3 mps 744 mmHg 74%
    16:00 +5°C° 0 mm 3 mps 744 mmHg 77%
    17:00 +4°C° 0 mm 3 mps 744 mmHg 79%
    18:00 +4°C° 0 mm 3 mps 745 mmHg 80%
    19:00 +3°C° 0 mm 3 mps 745 mmHg 82%
    20:00 +2°C° 0 mm 3 mps 745 mmHg 84%
    21:00 +2°C° 0 mm 3 mps 745 mmHg 85%
    22:00 +1°C° 0 mm 4 mps 745 mmHg 86%
    23:00 +1°C° 0 mm 4 mps 744 mmHg 87%

    Tomorrow, 15 November, Friday

    Time Temperature Precipitation Wind Pressure Humidity
    00:00 +1°C° 0 mm 4 mps 744 mmHg 87%
    01:00 +1°C° 0 mm 5 mps 744 mmHg 88%
    02:00 +1°C° 0 mm 5 mps 743 mmHg 88%
    03:00 +1°C° 0 mm 5 mps 743 mmHg 88%
    04:00 +1°C° 0 mm 6 mps 743 mmHg 88%
    05:00 +1°C° 0 mm 6 mps 742 mmHg 87%
    06:00 +2°C° 0 mm 6 mps 742 mmHg 86%
    07:00 +2°C° 0 mm 6 mps 741 mmHg 85%
    08:00 +3°C° 0 mm 5 mps 741 mmHg 84%
    09:00 +5°C° 0 mm 5 mps 741 mmHg 82%
    10:00 +5°C° 0 mm 5 mps 742 mmHg 81%
    11:00 +6°C° 0 mm 4 mps 742 mmHg 80%
    12:00 +8°C° 0 mm 3 mps 742 mmHg 78%
    13:00 +8°C° 0 mm 2 mps 742 mmHg 76%
    14:00 +8°C° 0 mm 2 mps 742 mmHg 78%
    15:00 +8°C° 0 mm 2 mps 741 mmHg 80%
    16:00 +8°C° 0 mm 2 mps 741 mmHg 82%
    17:00 +8°C° 0 mm 1 mps 741 mmHg 85%
    18:00 +7°C° 0 mm 1 mps 742 mmHg 88%
    19:00 +6°C° 0 mm 0 mps 742 mmHg 91%
    20:00 +7°C° 0 mm 1 mps 742 mmHg 90%
    21:00 +7°C° 0 mm 1 mps 742 mmHg 90%
    22:00 +7°C° 0 mm 1 mps 743 mmHg 90%
    23:00 +5°C° 0 mm 2 mps 743 mmHg 90%

    Day after tomorrow, 16 November, Saturday

    Time Temperature Precipitation Wind Pressure Humidity
    00:00 +4°C° 0 mm 3 mps 742 mmHg 89%
    01:00 +4°C° 0 mm 3 mps 742 mmHg 89%
    02:00 +4°C° 0.1 mm 4 mps 742 mmHg 88%
    03:00 +4°C° 0.1 mm 4 mps 742 mmHg 86%
    04:00 +2°C° 0.1 mm 5 mps 742 mmHg 85%
    05:00 +2°C° 0.8 mm 5 mps 743 mmHg 88%
    06:00 +2°C° 0.8 mm 5 mps 743 mmHg 91%
    07:00 +2°C° 0.8 mm 5 mps 743 mmHg 94%
    08:00 +2°C° 0.5 mm 5 mps 743 mmHg 94%
    09:00 +2°C° 0.5 mm 6 mps 744 mmHg 93%
    10:00 +2°C° 0.5 mm 6 mps 744 mmHg 93%
    11:00 +2°C° 0.5 mm 6 mps 745 mmHg 91%
    12:00 +2°C° 0.5 mm 6 mps 745 mmHg 90%
    13:00 +3°C° 0.5 mm 6 mps 745 mmHg 88%
    14:00 +3°C° 0.1 mm 6 mps 746 mmHg 86%
    15:00 +3°C° 0.1 mm 5 mps 746 mmHg 83%
    16:00 +3°C° 0.1 mm 5 mps 746 mmHg 81%
    17:00 +3°C° 0 mm 5 mps 747 mmHg 82%
    18:00 +3°C° 0 mm 5 mps 747 mmHg 83%
    19:00 +3°C° 0 mm 5 mps 747 mmHg 84%
    20:00 +2°C° 0 mm 5 mps 748 mmHg 84%
    21:00 +2°C° 0 mm 5 mps 748 mmHg 84%
    22:00 +2°C° 0 mm 5 mps 748 mmHg 84%
    23:00 +2°C° 0 mm 5 mps 749 mmHg 85%

    17 November, Sunday

    Time Temperature Precipitation Wind Pressure Humidity
    00:00 +1°C° 0 mm 5 mps 749 mmHg 86%
    01:00 +1°C° 0 mm 5 mps 749 mmHg 87%
    02:00 +1°C° 0 mm 4 mps 749 mmHg 88%
    03:00 +1°C° 0 mm 4 mps 749 mmHg 89%
    04:00 +1°C° 0 mm 3 mps 749 mmHg 90%
    05:00 +1°C° 0 mm 3 mps 749 mmHg 91%
    06:00 +1°C° 0 mm 3 mps 749 mmHg 91%
    07:00 +2°C° 0 mm 2 mps 750 mmHg 92%
    08:00 +2°C° 0 mm 2 mps 750 mmHg 89%
    09:00 +3°C° 0 mm 2 mps 750 mmHg 87%
    10:00 +4°C° 0 mm 2 mps 750 mmHg 84%
    11:00 +6°C° 0 mm 1 mps 750 mmHg 82%
    12:00 +7°C° 0 mm 1 mps 750 mmHg 79%
    13:00 +8°C° 0 mm 1 mps 749 mmHg 77%
    14:00 +7°C° 0 mm 1 mps 749 mmHg 80%
    15:00 +6°C° 0 mm 2 mps 748 mmHg 83%
    16:00 +5°C° 0 mm 2 mps 748 mmHg 87%
    17:00 +4°C° 0 mm 3 mps 747 mmHg 87%
    18:00 +4°C° 0 mm 3 mps 747 mmHg 88%
    19:00 +3°C° 0 mm 4 mps 747 mmHg 89%
    20:00 +3°C° 0 mm 4 mps 746 mmHg 87%
    21:00 +3°C° 0 mm 4 mps 746 mmHg 86%
    22:00 +3°C° 0 mm 5 mps 745 mmHg 84%
    23:00 +4°C° 0.1 mm 4 mps 745 mmHg 86%

    18 November, Monday

    Time Temperature Precipitation Wind Pressure Humidity
    00:00 +4°C° 0.1 mm 3 mps 744 mmHg 88%
    01:00 +4°C° 0.1 mm 3 mps 743 mmHg 89%
    02:00 +5°C° 0 mm 2 mps 743 mmHg 91%
    03:00 +6°C° 0 mm 1 mps 742 mmHg 93%
    04:00 +6°C° 0 mm 1 mps 742 mmHg 94%
    05:00 +6°C° 0 mm 1 mps 742 mmHg 95%
    06:00 +5°C° 0 mm 0 mps 741 mmHg 95%
    07:00 +5°C° 0 mm 0 mps 741 mmHg 96%
    08:00 +6°C° 0 mm 1 mps 741 mmHg 94%
    09:00 +6°C° 0 mm 2 mps 742 mmHg 93%
    10:00 +6°C° 0 mm 2 mps 742 mmHg 92%
    11:00 +5°C° 0 mm 3 mps 742 mmHg 90%
    12:00 +5°C° 0 mm 3 mps 741 mmHg 89%
    13:00 +7°C° 0 mm 3 mps 741 mmHg 87%
    14:00 +5°C° 0 mm 3 mps 741 mmHg 88%
    15:00 +5°C° 0 mm 3 mps 741 mmHg 88%
    16:00 +5°C° 0 mm 4 mps 741 mmHg 89%
    17:00 +5°C° 0.1 mm 4 mps 741 mmHg 89%
    18:00 +5°C° 0.1 mm 4 mps 741 mmHg 89%
    19:00 +5°C° 0.1 mm 5 mps 741 mmHg 90%
    20:00 +5°C° 0.2 mm 5 mps 741 mmHg 89%
    21:00 +5°C° 0.2 mm 5 mps 741 mmHg 88%
    22:00 +5°C° 0.2 mm 5 mps 741 mmHg 87%
    23:00 +5°C° 0.3 mm 5 mps 742 mmHg 89%

    19 November, Tuesday

    Time Temperature Precipitation Wind Pressure Humidity
    00:00 +5°C° 0.3 mm 5 mps 742 mmHg 91%
    01:00 +5°C° 0.3 mm 5 mps 742 mmHg 92%
    02:00 +5°C° 0 mm 5 mps 743 mmHg 91%
    03:00 +5°C° 0 mm 5 mps 743 mmHg 90%
    04:00 +5°C° 0 mm 5 mps 743 mmHg 89%
    05:00 +5°C° 0 mm 5 mps 744 mmHg 90%
    06:00 +3°C° 0 mm 5 mps 744 mmHg 90%
    07:00 +3°C° 0 mm 5 mps 745 mmHg 91%
    08:00 +3°C° 0.1 mm 5 mps 745 mmHg 90%
    09:00 +3°C° 0.1 mm 5 mps 746 mmHg 88%
    10:00 +3°C° 0.1 mm 5 mps 746 mmHg 87%
    11:00 +3°C° 0.2 mm 5 mps 747 mmHg 89%
    12:00 +3°C° 0.2 mm 5 mps 747 mmHg 90%
    13:00 +2°C° 0.2 mm 6 mps 747 mmHg 92%
    14:00 +3°C° 0.3 mm 5 mps 747 mmHg 89%
    15:00 +4°C° 0.3 mm 4 mps 748 mmHg 87%
    16:00 +4°C° 0.3 mm 3 mps 748 mmHg 84%
    17:00 +3°C° 0 mm 3 mps 748 mmHg 85%
    18:00 +3°C° 0 mm 3 mps 748 mmHg 87%
    19:00 +3°C° 0 mm 2 mps 749 mmHg 88%
    20:00 +3°C° 0 mm 2 mps 749 mmHg 88%
    21:00 +2°C° 0 mm 2 mps 749 mmHg 89%
    22:00 +2°C° 0 mm 2 mps 749 mmHg 90%
    23:00 +2°C° 0 mm 2 mps 749 mmHg 90%
    Show more